Weather History for Albert Lea, MN

Change the Weather History Date:

Sunday, November 11, 2012

  Actual Average Record
Temperature  
Mean Temperature 37 °F -  
Max Temperature 55 °F 43 °F 64 °F (2007)
Min Temperature 19 °F 27 °F 1 °F (1997)
Degree Days  
Heating Degree Days 28    
Moisture  
Dew Point 30 °F    
Average Humidity 91    
Maximum Humidity 100    
Minimum Humidity 74    
Precipitation  
Precipitation 0.04 in - - ()
Sea Level Pressure  
Sea Level Pressure 29.79 in    
Wind  
Wind Speed 9 mph (WNW)    
Max Wind Speed 16 mph    
Max Gust Speed 24 mph    
Visibility 8 miles    
Events Rain , Snow    
Averages and records for this station are not official NWS values.
T = Trace of Precipitation, MM = Missing Value Source: NWS Daily Summary

Daily Weather History Graph

Daily Weather History Graph

Search for Another Location

Airport:

Trip Planner

Search our weather history database for the weather conditions in past years. The results will help you decide how hot, cold, wet, or windy it might be!

Date:

Astronomy

Nov. 11, 2012 Rise Set
Actual Time 7:03 AM CST 4:51 PM CST
Civil Twilight 6:32 AM CST 5:22 PM CST
Nautical Twilight 5:57 AM CST 5:56 PM CST
Astronomical Twilight 5:24 AM CST 6:30 PM CST
Moon 4:13 AM CST (11/11) 3:18 PM CST (11/11)
Length of Visible Light 10h 49m
Length of Day
9h 48m
Waning Crescent, 7% of the Moon is Illuminated
Nov 11
Waning Crescent
Nov 13
New
Nov 20
First Quarter
Nov 28
Full
Dec 6
Last Quarter

Hourly Weather History & Observations

Time (CST) Temp. Windchill Dew Point Humidity Pressure Visibility Wind Dir Wind Speed Gust Speed Precip Events Conditions
12:11 AM 55.4 °F - 53.6 °F 94% 29.61 in 10.0 mi SSW 4.6 mph - N/A Rain Light Rain
12:32 AM 55.4 °F - 53.6 °F 94% 29.58 in 10.0 mi South 4.6 mph - N/A   Light Drizzle
12:51 AM 53.6 °F - 53.6 °F 100% 29.59 in 10.0 mi South 5.8 mph - N/A   Scattered Clouds
1:11 AM 53.6 °F - 53.6 °F 100% 29.61 in 10.0 mi South 6.9 mph - N/A Rain Light Rain
1:32 AM 53.6 °F - 53.6 °F 100% 29.61 in 10.0 mi South 8.1 mph - N/A Rain Light Rain
1:51 AM 53.6 °F - 53.6 °F 100% 29.61 in 10.0 mi South 8.1 mph - N/A Rain Rain
2:11 AM 55.4 °F - 53.6 °F 94% 29.62 in 7.0 mi SSW 4.6 mph 9.2 mph N/A Rain Light Rain
2:31 AM 53.6 °F - 53.6 °F 100% 29.61 in 10.0 mi SSW 8.1 mph - 0.01 in Rain Light Rain
2:51 AM 53.6 °F - 51.8 °F 94% 29.59 in 10.0 mi West 8.1 mph - N/A   Overcast
3:12 AM 51.8 °F - 48.2 °F 88% 29.64 in 7.0 mi West 9.2 mph - N/A   Overcast
3:31 AM 50.0 °F - 48.2 °F 94% 29.63 in 7.0 mi West 8.1 mph - N/A Rain Rain
3:51 AM 46.4 °F 41.9 °F 46.4 °F 100% 29.65 in 10.0 mi WNW 9.2 mph - N/A Rain Light Rain
4:12 AM 46.4 °F 41.5 °F 44.6 °F 93% 29.64 in 7.0 mi WNW 10.4 mph - N/A Rain Rain
4:31 AM 42.8 °F 37.5 °F 42.8 °F 100% 29.66 in 7.0 mi WNW 9.2 mph 16.1 mph N/A   Overcast
4:51 AM 42.8 °F 38.0 °F 42.8 °F 100% 29.66 in 7.0 mi NW 8.1 mph - N/A   Overcast
5:31 AM 39.2 °F 33.0 °F 37.4 °F 93% 29.67 in 5.0 mi WNW 9.2 mph 20.7 mph N/A   Drizzle
5:51 AM 37.4 °F 30.8 °F 37.4 °F 100% 29.69 in 4.0 mi WNW 9.2 mph 20.7 mph N/A   Drizzle
6:12 AM 37.4 °F 30.8 °F 37.4 °F 100% 29.70 in 5.0 mi WNW 9.2 mph 17.3 mph N/A   Overcast
6:31 AM 35.6 °F 28.6 °F 35.6 °F 100% 29.71 in 3.0 mi WNW 9.2 mph - 0.01 in Rain Heavy Rain
6:51 AM 35.6 °F 29.9 °F 35.6 °F 100% 29.69 in 1.8 mi NW 6.9 mph 17.3 mph 0.01 in Rain Rain
7:31 AM 32.0 °F 21.6 °F 32.0 °F 100% 29.73 in 10.0 mi WNW 15.0 mph 23.0 mph 0.02 in   Overcast
8:11 AM 30.2 °F 21.9 °F 30.2 °F 100% 29.76 in 10.0 mi WNW 9.2 mph - N/A   Overcast
8:31 AM 30.2 °F 21.3 °F 30.2 °F 100% 29.76 in 7.0 mi NW 10.4 mph 16.1 mph N/A   Overcast
8:51 AM 30.2 °F 22.6 °F 30.2 °F 100% 29.76 in 1.5 mi NW 8.1 mph 18.4 mph N/A   Overcast
9:11 AM 30.2 °F 21.9 °F 30.2 °F 100% 29.74 in 2.0 mi NW 9.2 mph 16.1 mph N/A   Overcast
9:32 AM 30.2 °F 21.3 °F 30.2 °F 100% 29.74 in 2.0 mi NW 10.4 mph 17.3 mph N/A   Overcast
9:51 AM 30.2 °F 20.8 °F 30.2 °F 100% 29.77 in 1.5 mi WNW 11.5 mph 16.1 mph N/A   Overcast
10:11 AM 28.4 °F 19.7 °F 28.4 °F 100% 29.79 in 2.0 mi WNW 9.2 mph 18.4 mph N/A   Overcast
10:31 AM 28.4 °F 19.7 °F 28.4 °F 100% 29.78 in 4.0 mi WNW 9.2 mph 18.4 mph N/A   Overcast
10:51 AM 28.4 °F 19.1 °F 28.4 °F 100% 29.77 in 5.0 mi NW 10.4 mph 19.6 mph N/A   Overcast
11:11 AM 28.4 °F 20.4 °F 28.4 °F 100% 29.79 in 7.0 mi WNW 8.1 mph - N/A   Overcast
11:31 AM 28.4 °F 18.5 °F 28.4 °F 100% 29.79 in 10.0 mi WNW 11.5 mph 20.7 mph N/A   Overcast
12:12 PM 26.6 °F 16.8 °F 26.6 °F 100% 29.77 in 5.0 mi WNW 10.4 mph 19.6 mph N/A   Overcast
12:31 PM 26.6 °F 17.5 °F 26.6 °F 100% 29.78 in 5.0 mi WNW 9.2 mph 17.3 mph N/A Snow Light Snow
12:51 PM 26.6 °F 16.2 °F 26.6 °F 100% 29.78 in 5.0 mi NW 11.5 mph 19.6 mph N/A   Overcast
1:12 PM 26.6 °F 16.2 °F 26.6 °F 100% 29.78 in 10.0 mi NW 11.5 mph 19.6 mph N/A   Overcast
1:31 PM 26.6 °F 16.2 °F 26.6 °F 100% 29.79 in 7.0 mi WNW 11.5 mph 18.4 mph N/A   Overcast
1:51 PM 26.6 °F 16.8 °F 24.8 °F 93% 29.79 in 7.0 mi NW 10.4 mph 17.3 mph N/A   Overcast
2:12 PM 26.6 °F 14.7 °F 24.8 °F 93% 29.78 in 7.0 mi WNW 15.0 mph 19.6 mph N/A   Overcast
2:31 PM 26.6 °F 16.8 °F 24.8 °F 93% 29.80 in 10.0 mi WNW 10.4 mph 21.9 mph N/A   Overcast
2:51 PM 26.6 °F 16.8 °F 24.8 °F 93% 29.79 in 10.0 mi WNW 10.4 mph 23.0 mph N/A   Overcast
3:12 PM 24.8 °F 14.0 °F 23.0 °F 93% 29.81 in 10.0 mi WNW 11.5 mph 18.4 mph N/A   Overcast
3:31 PM 24.8 °F 15.3 °F 23.0 °F 93% 29.83 in 10.0 mi WNW 9.2 mph - N/A   Overcast
3:51 PM 26.6 °F 15.2 °F 23.0 °F 86% 29.83 in 10.0 mi WNW 13.8 mph 21.9 mph N/A   Overcast
4:11 PM 26.6 °F 15.7 °F 23.0 °F 86% 29.84 in 10.0 mi WNW 12.7 mph 24.2 mph N/A   Overcast
4:31 PM 26.6 °F 17.5 °F 23.0 °F 86% 29.83 in 10.0 mi WNW 9.2 mph 17.3 mph N/A   Overcast
4:51 PM 26.6 °F 14.7 °F 21.2 °F 80% 29.84 in 10.0 mi WNW 15.0 mph 21.9 mph N/A   Overcast
5:12 PM 24.8 °F 14.6 °F 21.2 °F 86% 29.86 in 10.0 mi WNW 10.4 mph 21.9 mph N/A   Overcast
5:31 PM 24.8 °F 14.0 °F 19.4 °F 80% 29.87 in 10.0 mi WNW 11.5 mph 20.7 mph N/A   Overcast
5:51 PM 24.8 °F 14.0 °F 19.4 °F 80% 29.89 in 10.0 mi WNW 11.5 mph 18.4 mph N/A   Scattered Clouds
6:11 PM 24.8 °F 15.3 °F 19.4 °F 80% 29.89 in 10.0 mi WNW 9.2 mph 17.3 mph N/A   Mostly Cloudy
6:31 PM 24.8 °F 16.1 °F 19.4 °F 80% 29.90 in 10.0 mi WNW 8.1 mph - N/A   Overcast
6:52 PM 24.8 °F 11.9 °F 17.6 °F 74% 29.91 in 10.0 mi WNW 16.1 mph 24.2 mph N/A   Overcast
7:11 PM 24.8 °F 14.6 °F 19.4 °F 80% 29.92 in 10.0 mi West 10.4 mph 19.6 mph N/A   Overcast
7:31 PM 24.8 °F 14.0 °F 17.6 °F 74% 29.92 in 10.0 mi WNW 11.5 mph 20.7 mph N/A   Overcast
7:52 PM 24.8 °F 13.4 °F 17.6 °F 74% 29.93 in 10.0 mi West 12.7 mph 20.7 mph N/A   Overcast
8:11 PM 23.0 °F 12.4 °F 17.6 °F 80% 29.94 in 10.0 mi WNW 10.4 mph 18.4 mph N/A   Overcast
8:31 PM 23.0 °F 11.1 °F 17.6 °F 80% 29.94 in 10.0 mi West 12.7 mph 21.9 mph N/A   Overcast
8:52 PM 21.2 °F 10.9 °F 17.6 °F 86% 29.95 in 10.0 mi West 9.2 mph 21.9 mph N/A   Overcast
9:11 PM 21.2 °F 8.9 °F 15.8 °F 80% 29.96 in 10.0 mi West 12.7 mph 19.6 mph N/A   Overcast
9:31 PM 21.2 °F 9.5 °F 15.8 °F 80% 29.96 in 10.0 mi West 11.5 mph 23.0 mph N/A   Overcast
9:52 PM 21.2 °F 10.1 °F 15.8 °F 80% 29.97 in 10.0 mi West 10.4 mph 18.4 mph N/A   Overcast
10:11 PM 19.4 °F 5.0 °F 15.8 °F 86% 29.97 in 10.0 mi West 16.1 mph 23.0 mph N/A   Overcast
10:31 PM 19.4 °F 5.5 °F 14.0 °F 80% 29.97 in 10.0 mi West 15.0 mph 23.0 mph N/A   Overcast
10:52 PM 19.4 °F 7.9 °F 14.0 °F 80% 29.98 in 10.0 mi West 10.4 mph 18.4 mph N/A   Overcast
11:11 PM 19.4 °F 7.2 °F 12.2 °F 74% 29.98 in 10.0 mi WNW 11.5 mph 18.4 mph N/A   Overcast
11:31 PM 19.4 °F 7.2 °F 14.0 °F 80% 29.97 in 10.0 mi West 11.5 mph 17.3 mph N/A   Overcast
11:52 PM 19.4 °F 9.5 °F 15.8 °F 86% 29.98 in 10.0 mi WNW 8.1 mph - N/A Snow Light Snow